SM7GXQ Weather Reports


Display with metric or nautical units.
time (UTC)temp
F
wind
direction
speed
MPH
gust
MPH
rain 1hr
in
rain 24hr
in
rain mn
in
humidity
%
barometer
mb
20260504081503 55 217 2.0 8.0 0.00 0.02 0.03 86 1004.5
20260504050005 48 6 6.0 12.0 0.00 0.02 0.03 91 1003.7
20260504041504 48 313 2.0 3.0 0.00 0.02 0.03 93 1003.1
20260504034504 48 59 0.0 5.0 0.00 0.02 0.03 93 1004.1
20260504030004 48 68 3.0 6.0 0.00 0.02 0.03 93 1004.1
20260504024503 48 32 3.0 5.0 0.00 0.02 0.03 93 1004.1
20260504023003 47 80 1.0 3.0 0.00 0.02 0.03 93 1004.8
20260504020003 48 90 1.0 3.0 0.00 0.02 0.03 92 1005.1
20260504014503 48 92 1.0 3.0 0.00 0.02 0.03 92 1005.8
20260504013003 48 90 1.0 2.0 0.00 0.02 0.03 92 1005.8
20260504010004 49 51 1.0 2.0 0.00 0.02 0.03 92 1005.6
20260504004503 49 49 2.0 3.0 0.00 0.02 0.03 92 1006.1
20260504003004 49 16 1.0 3.0 0.00 0.02 0.03 91 1006.1
20260503234503 49 163 0.0 8.0 0.03 0.02 0.03 91 1006.3
20260503223003 48 202 4.0 5.0 0.00 0.00 0.00 85 1007.4
20260503221504 48 38 0.0 2.0 0.00 0.00 0.00 84 1006.9
20260503214504 49 24 2.0 6.0 0.00 0.00 0.00 83 1007.2
20260503213004 49 21 4.0 6.0 0.00 0.00 0.00 83 1007.2
20260503211503 49 8 3.0 5.0 0.00 0.00 0.00 83 1007.2
20260503204504 50 11 5.0 7.0 0.00 0.00 0.00 84 1007.5
20260503203004 51 356 5.0 7.0 0.00 0.00 0.00 85 1007.7
20260503193004 51 350 2.0 6.0 0.00 0.00 0.00 86 1007.6
20260503191504 52 12 4.0 7.0 0.00 0.00 0.00 86 1007.7
20260503181505 53 356 5.0 7.0 0.00 0.00 0.00 83 1007.4
20260503180004 54 353 4.0 7.0 0.00 0.00 0.00 82 1007.0